| time (UTC) | temp F | wind direction | speed MPH | gust MPH | rain 1hr in | rain 24hr in | rain mn in | humidity % | barometer mb |
| 20260504081021 | 61 | 333 | 3.0 | 8.0 | 0.00 | 0.00 | 0.00 | 54 | 1021.5 |
| 20260504050513 | 52 | 254 | 0.0 | 1.0 | 0.00 | 0.00 | 0.00 | 75 | 1020.7 |
| 20260504050013 | 51 | 254 | 0.0 | 2.0 | 0.00 | 0.00 | 0.00 | 76 | 1020.7 |
| 20260504044020 | 50 | 263 | 1.0 | 2.0 | 0.00 | 0.00 | 0.00 | 79 | 1020.7 |
| 20260504042021 | 50 | 256 | 2.0 | 3.0 | 0.00 | 0.00 | 0.00 | 76 | 1020.4 |
| 20260504040513 | 51 | 244 | 0.0 | 1.0 | 0.00 | 0.00 | 0.00 | 75 | 1020.3 |
| 20260504035513 | 51 | 244 | 0.0 | 1.0 | 0.00 | 0.00 | 0.00 | 76 | 1020.1 |
| 20260504034021 | 51 | 245 | 0.0 | 1.0 | 0.00 | 0.00 | 0.00 | 75 | 1020.1 |
| 20260504033019 | 51 | 244 | 0.0 | 1.0 | 0.00 | 0.00 | 0.00 | 75 | 1020.1 |
| 20260504030513 | 51 | 307 | 2.0 | 3.0 | 0.00 | 0.00 | 0.00 | 75 | 1020.4 |
| 20260504025019 | 50 | 331 | 2.0 | 3.0 | 0.00 | 0.00 | 0.00 | 79 | 1020.4 |
| 20260504024020 | 50 | 280 | 3.0 | 7.0 | 0.00 | 0.00 | 0.00 | 79 | 1020.5 |
| 20260504023513 | 50 | 297 | 5.0 | 8.0 | 0.00 | 0.00 | 0.00 | 80 | 1020.5 |
| 20260504022514 | 50 | 276 | 3.0 | 6.0 | 0.00 | 0.00 | 0.00 | 81 | 1020.5 |
| 20260504022019 | 50 | 291 | 5.0 | 8.0 | 0.00 | 0.00 | 0.00 | 81 | 1020.5 |
| 20260504020514 | 50 | 251 | 5.0 | 8.0 | 0.00 | 0.00 | 0.00 | 81 | 1020.5 |
| 20260504015514 | 50 | 303 | 4.0 | 8.0 | 0.00 | 0.00 | 0.00 | 82 | 1020.5 |
| 20260504015019 | 50 | 287 | 5.0 | 8.0 | 0.00 | 0.00 | 0.00 | 82 | 1020.6 |
| 20260504014513 | 50 | 299 | 3.0 | 7.0 | 0.00 | 0.00 | 0.00 | 83 | 1020.5 |
| 20260504014019 | 49 | 278 | 4.0 | 7.0 | 0.00 | 0.00 | 0.00 | 83 | 1020.5 |
| 20260504013020 | 49 | 299 | 4.0 | 8.0 | 0.00 | 0.00 | 0.00 | 83 | 1020.6 |
| 20260504012513 | 50 | 278 | 4.0 | 7.0 | 0.00 | 0.00 | 0.00 | 83 | 1020.6 |
| 20260504012019 | 50 | 289 | 3.0 | 7.0 | 0.00 | 0.00 | 0.00 | 83 | 1020.5 |
| 20260504010513 | 50 | 269 | 4.0 | 7.0 | 0.00 | 0.00 | 0.00 | 84 | 1020.5 |
| 20260504005513 | 49 | 305 | 5.0 | 8.0 | 0.00 | 0.00 | 0.00 | 84 | 1020.5 |
| 20260504005020 | 49 | 252 | 5.0 | 8.0 | 0.00 | 0.00 | 0.00 | 84 | 1020.6 |
| 20260504004513 | 50 | 281 | 5.0 | 8.0 | 0.00 | 0.00 | 0.00 | 85 | 1020.6 |
| 20260504004019 | 49 | 297 | 5.0 | 8.0 | 0.00 | 0.00 | 0.00 | 85 | 1020.6 |
| 20260504003514 | 49 | 359 | 3.0 | 7.0 | 0.00 | 0.00 | 0.00 | 85 | 1020.7 |
| 20260504003019 | 49 | 308 | 3.0 | 7.0 | 0.00 | 0.00 | 0.00 | 86 | 1020.6 |
| 20260504000512 | 49 | 294 | 2.0 | 7.0 | 0.00 | 0.00 | 0.00 | 85 | 1020.8 |
| 20260504000013 | 50 | 272 | 3.0 | 8.0 | 0.00 | 0.00 | 0.00 | 84 | 1020.9 |
| 20260503235513 | 50 | 275 | 4.0 | 8.0 | 0.00 | 0.00 | 0.00 | 85 | 1020.9 |
| 20260503235021 | 50 | 279 | 5.0 | 7.0 | 0.00 | 0.00 | 0.00 | 85 | 1020.9 |
| 20260503234517 | 51 | 295 | 5.0 | 7.0 | 0.00 | 0.00 | 0.00 | 85 | 1020.8 |
| 20260503233512 | 50 | 359 | 2.0 | 3.0 | 0.00 | 0.00 | 0.00 | 85 | 1020.8 |
| 20260503230515 | 51 | 306 | 5.0 | 7.0 | 0.00 | 0.00 | 0.00 | 84 | 1021.1 |
| 20260503224019 | 51 | 328 | 2.0 | 3.0 | 0.00 | 0.00 | 0.00 | 84 | 1021.2 |
| 20260503222020 | 51 | 320 | 6.0 | 9.0 | 0.00 | 0.00 | 0.00 | 84 | 1021.3 |
| 20260503221514 | 51 | 307 | 3.0 | 7.0 | 0.00 | 0.00 | 0.00 | 84 | 1021.3 |
| 20260503220512 | 51 | 307 | 5.0 | 8.0 | 0.00 | 0.00 | 0.00 | 84 | 1021.3 |
| 20260503215019 | 52 | 277 | 5.0 | 8.0 | 0.00 | 0.00 | 0.00 | 83 | 1021.3 |
| 20260503213512 | 52 | 318 | 6.0 | 10.0 | 0.00 | 0.00 | 0.00 | 84 | 1021.3 |
| 20260503211514 | 52 | 297 | 6.0 | 10.0 | 0.00 | 0.00 | 0.00 | 83 | 1021.1 |
| 20260503210012 | 52 | 291 | 7.0 | 10.0 | 0.00 | 0.00 | 0.00 | 83 | 1021.1 |
| 20260503203019 | 53 | 321 | 4.0 | 8.0 | 0.00 | 0.00 | 0.00 | 81 | 1021.0 |
| 20260503202019 | 53 | 290 | 5.0 | 8.0 | 0.00 | 0.00 | 0.00 | 80 | 1021.0 |
| 20260503201512 | 54 | 310 | 3.0 | 8.0 | 0.00 | 0.00 | 0.00 | 80 | 1020.9 |
| 20260503200514 | 54 | 275 | 5.0 | 9.0 | 0.00 | 0.00 | 0.00 | 80 | 1020.9 |
| 20260503200012 | 54 | 259 | 5.0 | 9.0 | 0.00 | 0.00 | 0.00 | 79 | 1020.9 |
| 20260503195019 | 54 | 300 | 5.0 | 8.0 | 0.00 | 0.00 | 0.00 | 78 | 1020.8 |
| 20260503193019 | 55 | 322 | 5.0 | 9.0 | 0.00 | 0.00 | 0.00 | 77 | 1020.8 |
| 20260503191512 | 55 | 285 | 5.0 | 10.0 | 0.00 | 0.00 | 0.00 | 76 | 1020.7 |
| 20260503191019 | 55 | 274 | 6.0 | 10.0 | 0.00 | 0.00 | 0.00 | 76 | 1020.7 |
| 20260503190012 | 55 | 281 | 6.0 | 12.0 | 0.00 | 0.00 | 0.00 | 76 | 1020.5 |
| 20260503185513 | 55 | 275 | 7.0 | 12.0 | 0.00 | 0.00 | 0.00 | 75 | 1020.4 |
| 20260503185021 | 56 | 299 | 5.0 | 9.0 | 0.00 | 0.00 | 0.00 | 75 | 1020.5 |
| 20260503184021 | 56 | 307 | 6.0 | 10.0 | 0.00 | 0.00 | 0.00 | 74 | 1020.5 |
| 20260503182513 | 56 | 310 | 7.0 | 12.0 | 0.00 | 0.00 | 0.00 | 74 | 1020.4 |
| 20260503181512 | 57 | 289 | 8.0 | 13.0 | 0.00 | 0.00 | 0.00 | 74 | 1020.2 |
| 20260503180012 | 57 | 302 | 7.0 | 17.0 | 0.00 | 0.00 | 0.00 | 75 | 1020.0 |
| 20260503175512 | 57 | 285 | 9.0 | 16.0 | 0.00 | 0.00 | 0.00 | 75 | 1020.0 |
| 20260503174513 | 58 | 302 | 10.0 | 15.0 | 0.00 | 0.00 | 0.00 | 76 | 1020.0 |
| 20260503174019 | 58 | 286 | 6.0 | 13.0 | 0.00 | 0.00 | 0.00 | 77 | 1019.8 |
| 20260503173019 | 58 | 273 | 7.0 | 13.0 | 0.00 | 0.00 | 0.00 | 76 | 1019.9 |
| 20260503171513 | 59 | 268 | 7.0 | 12.0 | 0.00 | 0.00 | 0.00 | 75 | 1019.7 |
| 20260503150512 | 63 | 348 | 7.0 | 15.0 | 0.00 | 0.00 | 0.00 | 67 | 1019.5 |
| 20260503130512 | 63 | 267 | 9.0 | 18.0 | 0.00 | 0.00 | 0.00 | 62 | 1020.6 |
| 20260503110513 | 65 | 237 | 7.0 | 12.0 | 0.00 | 0.00 | 0.00 | 41 | 1021.1 |